Notices

What's New in latest Release from April 7th, 2021:

- Updated Glossary, including Speed of Maximum Gust, and Total Hourly Precipitation

- Updated national and regional climate services offices contacts and prices information

- Addition of station inventory lists for 1981-2010, 1971-2000, and 1961-1990 Normals.

If you haven't already, please take our survey and provide feedback about our website: https://eccc.sondage-survey.ca/f/LanguageSelection.aspx?s=442ca660-fcf1-47c0-95a9-59707d6fd709

Hourly Data Report for April 18, 2021

ALGONQUIN PARK EAST GATE
ONTARIO
Current Station Operator: ECCC - MSC

45°32'00.000" N
78°16'00.000" W
397.00 m
6080192
71581
TNK

Download Data

Hourly Data (April 2021)
Hourly Data Report for April 18, 2021
TIME
LST
Temp Definition
°C
Dew Point Definition
°C
Rel Hum Definition
%
Precip. Amount Definition
mm

Wind Dir Definition
10's deg

Wind Spd Definition
km/h
Visibility Definition
km
Stn Press Definition
kPa
Hmdx Definition


Wind Chill Definition


Weather Definition


00:00 0.4 -0.6 93 0.0   0   96.14     LegendNANA
01:00 -0.9 -1.8 93 0.0   0   96.12     LegendNANA
02:00 -1.7 -2.5 94 0.0   0   96.10     LegendNANA
03:00 -1.9 -2.7 94 0.0   0   96.12     LegendNANA
04:00 -2.1 -2.9 94 0.0   0   96.13     LegendNANA
05:00 -2.6 -3.4 94 0.0   0   96.13     LegendNANA
06:00 -2.4 -3.2 94 0.0   0   96.16     LegendNANA
07:00 -0.4 -1.2 94 0.0   0   96.18     LegendNANA
08:00 5.8 2.9 81 0.0   0   96.20     LegendNANA
09:00 9.9 2.4 59 0.0 19 1   96.17     LegendNANA
10:00 12.4 0.3 44 0.0 34 6   96.14     LegendNANA
11:00 8.0 2.9 70 0.0 33 6   96.18     LegendNANA
12:00 7.2 4.7 84 1.3 36 2   96.20     LegendNANA
13:00 9.2 4.8 74 0.0 2 2   96.15     LegendNANA
14:00 10.2 4.2 66 0.0 36 3   96.13     LegendNANA
15:00 10.7 2.4 56 0.0 35 5   96.10     LegendNANA
16:00 10.7 2.6 57 0.0 5 5   96.09     LegendNANA
17:00 11.3 2.6 55 0.0 36 3   96.10     LegendNANA
18:00 10.7 3.7 62 0.0 32 1   96.11     LegendNANA
19:00 6.8 2.8 75 0.0   0   96.12     LegendNANA
20:00 5.3 2.9 85 0.0 35 2   96.18     LegendNANA
21:00 2.6 1.0 90 0.0 0 1   96.19     LegendNANA
22:00 0.9 -0.3 92 0.0   0   96.18     LegendNANA
23:00 -0.8 -1.8 93 0.0   0   96.17     LegendNANA

Notes on Data Quality.

Legend

  • E = Estimated
  • M = Missing
  • NA = Not Available*
  • [empty] = Indicates an unobserved value
Date modified: